Location: Te Maire Creek
(41.1333°S, 175.9167°E)
Time: 00:18:30
(UTC+00:00)

Cosmos 1934 Rocket - Pass Details

Date: 19 May 2024
Orbit: 938 x 998 km, 83.0° (Epoch: 18 June)

Event Time Altitude Azimuth Distance (km) Brightness Sun altitude
Rises 16:58:37 0° 185° (S) 3,645 6.9 -26.8°
Reaches altitude 10° 17:01:11 10° 181° (S) 2,689 6.2 -26.3°
Maximum altitude 17:07:15 61° 100° (E) 1,068 4.4 -25.1°
Drops below altitude 10° 17:13:14 10° 20° (NNE) 2,657 6.6 -24.0°
Sets 17:15:45 0° 16° (NNE) 3,598 7.3 -23.5°
